STARLINK-11734, 64329

Orbit data source: Space-Track

STARLINK-11734, 64329 is a payload satellite owned by SpaceX/Seattle (US) in LEO that was launched on Tue, 10 Jun 2025 UTC via an FALCON 9 launch vehicle from the Air Force Eastern Test Range (AFETR). Payload-class satellites include a variety of spacecraft equipped with specific instruments for various scientific and technological missions. These include communications satellites like Starlink; space stations such as the ISS; scientific satellites like the Hubble; Earth observation satellites from companies like Planet Labs, Umbra, and HawkEye 360; GPS; miniature CubeSats for education and research; and military/defense satellites.

Loading next visibility...
Identifier
64329, 2025-124N
Orbit
LEO
Country
Flag of USUS
Related business
Manufacturer
SpaceX/Seattle
Mission
Operational Commercial Communications
Bus & Motor
STARLINK V2MD, Unknown motor
Mass
960 kg wet, ~910 kg dry
Launch date (UTC)
2025-06-10 (9 months ago)
Launch vehicle
FALCON 9
Launch site
Air Force Eastern Test Range (AFETR)
Object type
Payload
Rocket body
Debris
Shape & HBR
Box + 2 Pan, 18.1 m
Radar Cross Section
36.964 m², Large (>1 m²)

Expand to show TLE details & history
Last TLE update: 9 hours ago

TLE from 9 hours ago
0 STARLINK-11734
1 64329U 25124N   26068.27128829  .00291076  00000-0  21904-2 0  9992
2 64329  42.9995  31.2803 0001354 305.5924  54.4817 15.70872155 42772
Epoch: 2026-03-09T06:30Z
TLE epoch observation values (Epoch: 2026-03-09T06:30:39.308Z)
Latitude
-0.00003°
Longitude
126.64985°
Altitude
355.645 km
Speed
7.698 km/s
True Right ascension
02h 05m 07s
True Declination
0° 00' 00"
Sunlit
Object was in daylight at epoch
Visualization orbit readout
Latitude
Unknown
Longitude
Unknown
Altitude
Unknown
Speed
Unknown
Apparent Right ascension
Unknown
Apparent Declination
Unknown
Sunlit
N/A
Visualization observer readout
Local Sidereal Time
20:03:54
Azimuth
Unknown
Elevation
Unknown
Doppler factor
Unknown
Orbital elements
Apogee altitude
359.297 km
Perigee altitude
357.473 km
Semi-major axis
6,736.522 km
Eccentricity
0.00014
Inclination
42.9995°
RAAN
31.2803°
Arg. of periapsis
305.5924°
True anomaly
54.49433°
Mean anomaly
54.4817°
Eccentric anomaly
54.48801°
Mean motion
3.92545 °/min
Orbital period
91.71 mins
BSTAR
0.0021904
Loading maneuver chart data...
Computing Atmospheric mass density...
Loading historical data...
Loading historical data...
Loading historical data...
Loading historical data...
Loading historical data...
Loading historical data...
Loading historical data...

Documentation

Showing up to 5 results
|